• In Austria
  • List of Countries
  • For 7 days
  • Water Temperature
  • Satellite Maps
  • Weather Map
  • News
  • Weather Widgets
  • user-avatar
    Login

    Hourly Weather Pazardzhik

    Today, 19 August, Sunday

    Time Temperature Precipitation Wind Pressure Humidity
    00:00 +23°C° 0 mm 2 mps 744 mmHg 63%
    01:00 +23°C° 0 mm 2 mps 744 mmHg 64%
    02:00 +22°C° 0 mm 1 mps 744 mmHg 64%
    03:00 +21°C° 0 mm 2 mps 744 mmHg 64%
    04:00 +21°C° 0 mm 2 mps 744 mmHg 63%
    05:00 +21°C° 0 mm 2 mps 744 mmHg 63%
    06:00 +24°C° 0 mm 2 mps 744 mmHg 57%
    07:00 +26°C° 0 mm 1 mps 744 mmHg 51%
    08:00 +28°C° 0 mm 2 mps 745 mmHg 43%
    09:00 +30°C° 0 mm 2 mps 744 mmHg 39%
    10:00 +31°C° 0 mm 2 mps 744 mmHg 35%
    11:00 +34°C° 0 mm 3 mps 744 mmHg 31%
    12:00 +34°C° 0 mm 3 mps 744 mmHg 32%
    13:00 +34°C° 0 mm 3 mps 744 mmHg 32%
    14:00 +34°C° 0 mm 3 mps 744 mmHg 33%
    15:00 +33°C° 0 mm 3 mps 743 mmHg 35%
    16:00 +31°C° 0 mm 3 mps 743 mmHg 37%
    17:00 +31°C° 0 mm 3 mps 743 mmHg 39%
    18:00 +29°C° 0.1 mm 2 mps 743 mmHg 44%
    19:00 +27°C° 0.1 mm 2 mps 743 mmHg 50%
    20:00 +25°C° 0.1 mm 1 mps 743 mmHg 55%
    21:00 +25°C° 0.1 mm 1 mps 743 mmHg 56%
    22:00 +25°C° 0.1 mm 2 mps 743 mmHg 56%
    23:00 +24°C° 0.1 mm 2 mps 743 mmHg 57%

    Tomorrow, 20 August, Monday

    Time Temperature Precipitation Wind Pressure Humidity
    00:00 +24°C° 0 mm 1 mps 743 mmHg 58%
    01:00 +23°C° 0 mm 1 mps 743 mmHg 60%
    02:00 +23°C° 0 mm 1 mps 743 mmHg 62%
    03:00 +23°C° 0 mm 1 mps 743 mmHg 63%
    04:00 +22°C° 0 mm 1 mps 743 mmHg 63%
    05:00 +21°C° 0 mm 2 mps 743 mmHg 64%
    06:00 +24°C° 0 mm 2 mps 743 mmHg 61%
    07:00 +25°C° 0 mm 2 mps 743 mmHg 57%
    08:00 +27°C° 0 mm 2 mps 743 mmHg 53%
    09:00 +28°C° 0 mm 2 mps 743 mmHg 49%
    10:00 +30°C° 0 mm 2 mps 743 mmHg 44%
    11:00 +33°C° 0 mm 3 mps 743 mmHg 40%
    12:00 +33°C° 0 mm 3 mps 743 mmHg 39%
    13:00 +33°C° 0 mm 3 mps 742 mmHg 38%
    14:00 +33°C° 0 mm 3 mps 742 mmHg 37%
    15:00 +33°C° 0 mm 3 mps 742 mmHg 38%
    16:00 +31°C° 0 mm 3 mps 742 mmHg 38%
    17:00 +31°C° 0 mm 3 mps 741 mmHg 38%
    18:00 +29°C° 0 mm 2 mps 742 mmHg 44%
    19:00 +27°C° 0 mm 2 mps 742 mmHg 50%
    20:00 +25°C° 0 mm 1 mps 742 mmHg 56%
    21:00 +24°C° 0 mm 1 mps 742 mmHg 57%
    22:00 +23°C° 0 mm 1 mps 742 mmHg 58%
    23:00 +23°C° 0 mm 1 mps 743 mmHg 59%

    Day after tomorrow, 21 August, Tuesday

    Time Temperature Precipitation Wind Pressure Humidity
    00:00 +22°C° 0 mm 1 mps 743 mmHg 60%
    01:00 +22°C° 0 mm 1 mps 743 mmHg 61%
    02:00 +21°C° 0 mm 1 mps 743 mmHg 62%
    03:00 +21°C° 0 mm 1 mps 743 mmHg 63%
    04:00 +20°C° 0 mm 2 mps 743 mmHg 63%
    05:00 +20°C° 0 mm 2 mps 743 mmHg 64%
    06:00 +23°C° 0 mm 2 mps 743 mmHg 59%
    07:00 +25°C° 0 mm 1 mps 743 mmHg 55%
    08:00 +27°C° 0 mm 1 mps 743 mmHg 50%
    09:00 +28°C° 0 mm 2 mps 743 mmHg 46%
    10:00 +30°C° 0 mm 2 mps 743 mmHg 42%
    11:00 +32°C° 0 mm 2 mps 743 mmHg 38%
    12:00 +32°C° 0 mm 2 mps 743 mmHg 38%
    13:00 +33°C° 0 mm 3 mps 743 mmHg 38%
    14:00 +34°C° 0 mm 3 mps 742 mmHg 37%
    15:00 +33°C° 0 mm 3 mps 742 mmHg 38%
    16:00 +33°C° 0 mm 3 mps 742 mmHg 39%
    17:00 +32°C° 0 mm 2 mps 742 mmHg 40%
    18:00 +29°C° 0 mm 2 mps 742 mmHg 46%
    19:00 +27°C° 0 mm 2 mps 742 mmHg 53%
    20:00 +25°C° 0 mm 1 mps 742 mmHg 59%
    21:00 +24°C° 0 mm 1 mps 743 mmHg 60%
    22:00 +24°C° 0 mm 1 mps 743 mmHg 61%
    23:00 +23°C° 0 mm 1 mps 744 mmHg 61%

    22 August, Wednesday

    Time Temperature Precipitation Wind Pressure Humidity
    00:00 +23°C° 0 mm 1 mps 744 mmHg 63%
    01:00 +22°C° 0 mm 1 mps 744 mmHg 64%
    02:00 +22°C° 0 mm 1 mps 744 mmHg 65%
    03:00 +22°C° 0 mm 1 mps 744 mmHg 65%
    04:00 +21°C° 0 mm 1 mps 744 mmHg 65%
    05:00 +20°C° 0 mm 2 mps 744 mmHg 65%
    06:00 +23°C° 0 mm 2 mps 744 mmHg 59%
    07:00 +25°C° 0 mm 1 mps 744 mmHg 53%
    08:00 +27°C° 0 mm 1 mps 745 mmHg 48%
    09:00 +29°C° 0 mm 2 mps 745 mmHg 43%
    10:00 +30°C° 0 mm 2 mps 745 mmHg 39%
    11:00 +33°C° 0 mm 3 mps 745 mmHg 34%
    12:00 +33°C° 0 mm 3 mps 744 mmHg 34%
    13:00 +34°C° 0 mm 3 mps 744 mmHg 33%
    14:00 +34°C° 0 mm 3 mps 744 mmHg 33%
    15:00 +33°C° 0 mm 3 mps 743 mmHg 34%
    16:00 +33°C° 0 mm 3 mps 743 mmHg 36%
    17:00 +31°C° 0 mm 3 mps 743 mmHg 37%
    18:00 +29°C° 0 mm 2 mps 743 mmHg 42%
    19:00 +27°C° 0 mm 2 mps 743 mmHg 48%
    20:00 +25°C° 0 mm 1 mps 744 mmHg 53%
    21:00 +25°C° 0 mm 1 mps 744 mmHg 54%
    22:00 +24°C° 0 mm 1 mps 744 mmHg 55%
    23:00 +24°C° 0 mm 1 mps 744 mmHg 56%

    23 August, Thursday

    Time Temperature Precipitation Wind Pressure Humidity
    00:00 +23°C° 0 mm 1 mps 744 mmHg 58%
    01:00 +22°C° 0 mm 1 mps 744 mmHg 59%
    02:00 +22°C° 0 mm 1 mps 744 mmHg 60%
    03:00 +22°C° 0 mm 1 mps 744 mmHg 61%
    04:00 +22°C° 0 mm 1 mps 744 mmHg 61%
    05:00 +21°C° 0 mm 1 mps 744 mmHg 62%
    06:00 +23°C° 0 mm 1 mps 744 mmHg 59%
    07:00 +25°C° 0 mm 1 mps 744 mmHg 57%
    08:00 +26°C° 0 mm 1 mps 744 mmHg 54%
    09:00 +28°C° 0 mm 2 mps 744 mmHg 50%
    10:00 +29°C° 0 mm 2 mps 744 mmHg 46%
    11:00 +31°C° 0 mm 3 mps 744 mmHg 42%
    12:00 +31°C° 0 mm 3 mps 743 mmHg 41%
    13:00 +33°C° 0 mm 3 mps 743 mmHg 39%
    14:00 +33°C° 0 mm 3 mps 742 mmHg 38%
    15:00 +33°C° 0 mm 3 mps 742 mmHg 39%
    16:00 +31°C° 0 mm 3 mps 742 mmHg 40%
    17:00 +31°C° 0 mm 3 mps 741 mmHg 41%
    18:00 +29°C° 0 mm 2 mps 742 mmHg 48%
    19:00 +27°C° 0 mm 1 mps 742 mmHg 54%
    20:00 +25°C° 0 mm 1 mps 742 mmHg 61%
    21:00 +24°C° 0 mm 1 mps 742 mmHg 63%
    22:00 +24°C° 0 mm 1 mps 742 mmHg 65%
    23:00 +23°C° 0 mm 1 mps 742 mmHg 67%

    24 August, Friday

    Time Temperature Precipitation Wind Pressure Humidity
    00:00 +22°C° 0 mm 1 mps 742 mmHg 70%
    01:00 +22°C° 0 mm 1 mps 742 mmHg 72%
    02:00 +21°C° 0 mm 1 mps 742 mmHg 75%
    03:00 +21°C° 0 mm 1 mps 742 mmHg 77%
    04:00 +21°C° 0 mm 1 mps 742 mmHg 78%
    05:00 +21°C° 0 mm 1 mps 742 mmHg 80%
    06:00 +22°C° 0 mm 1 mps 742 mmHg 73%
    07:00 +24°C° 0 mm 1 mps 742 mmHg 67%
    08:00 +26°C° 0 mm 1 mps 742 mmHg 60%
    09:00 +28°C° 0 mm 1 mps 742 mmHg 53%
    10:00 +30°C° 0 mm 1 mps 742 mmHg 46%
    11:00 +31°C° 0 mm 2 mps 741 mmHg 39%
    12:00 +32°C° 0 mm 2 mps 741 mmHg 37%
    13:00 +32°C° 0 mm 2 mps 740 mmHg 35%
    14:00 +34°C° 0 mm 2 mps 740 mmHg 33%
    15:00 +32°C° 0 mm 2 mps 740 mmHg 35%
    16:00 +32°C° 0 mm 1 mps 739 mmHg 36%
    17:00 +32°C° 0 mm 1 mps 739 mmHg 37%
    18:00 +29°C° 0 mm 1 mps 739 mmHg 42%
    19:00 +27°C° 0 mm 1 mps 739 mmHg 46%
    20:00 +25°C° 0 mm 1 mps 739 mmHg 50%
    21:00 +24°C° 0 mm 1 mps 739 mmHg 52%
    22:00 +24°C° 0 mm 1 mps 739 mmHg 54%
    23:00 +23°C° 0 mm 1 mps 740 mmHg 56%
    Show more